Torna al catalogo

STARLINK-37773

AttivoComunicazioniSSO
NORAD 69346·PAYLOAD·🇺🇸 United States

Lanciato Jun 3, 2026 da Vandenberg Space Force Base

Loading…

Prossimi Passaggi (prossime 24 ore)

TLE

AggiornatoSource: CelesTrak SupGP

Epoca: Sep 14, 2026, 14:34 UTC

1 69346C 26122T   26257.60743056 -.00008861  00000+0 -27501-3 0  2573
2 69346  97.2827 286.3436 0001254 101.0632  66.6436 15.33449011    15

Traccia STARLINK-37773 in tempo reale con AllMySat

Download on the App Store